EW8073 Weather Reports


time (UTC)temp
C
wind
direction
speed
KPH
gust
KPH
rain 1hr
cm
rain 24hr
cm
rain mn
cm
humidity
%
barometer
mb
20260903192528 30 229 0.0 0.0 0.00 0.05 0.00 26 1014.4
20260903192029 30 229 0.0 0.0 0.00 0.05 0.00 27 1014.5
20260903191530 29 253 0.0 0.0 0.00 0.05 0.00 26 1014.5
20260903191029 29 177 0.0 0.0 0.00 0.05 0.00 29 1014.5
20260903190529 29 165 0.0 0.0 0.00 0.05 0.00 28 1014.6
20260903190026 29 245 0.0 0.0 0.00 0.05 0.00 28 1014.6
20260903185524 29 105 0.0 0.0 0.00 0.05 0.00 28 1014.7
20260903185025 28 106 0.0 0.0 0.00 0.05 0.00 29 1014.7
20260903184526 28 106 0.0 3.2 0.00 0.05 0.00 29 1014.8
20260903184025 28 106 0.0 8.0 0.00 0.05 0.00 28 1015.0
20260903183028 28 84 0.0 1.6 0.00 0.05 0.00 31 1015.1
20260903182527 28 84 0.0 0.0 0.00 0.05 0.00 28 1015.2
20260903182028 28 84 0.0 0.0 0.00 0.05 0.00 32 1015.3
20260903181519 28 84 0.0 0.0 0.00 0.05 0.00 31 1015.4
20260903181015 28 84 0.0 0.0 0.00 0.05 0.00 32 1015.4
20260903180002 27 86 0.0 4.8 0.00 0.05 0.00 33 1015.5
20260903175458 27 281 0.0 4.8 0.00 0.05 0.00 32 1015.5
20260903174950 27 281 0.0 4.8 0.00 0.05 0.00 32 1015.7
20260903174445 27 280 0.0 4.8 0.00 0.05 0.00 32 1015.7
20260903173938 27 226 0.0 0.0 0.00 0.05 0.00 33 1015.8
20260903173433 27 226 0.0 0.0 0.00 0.05 0.00 31 1015.9
20260903172926 26 226 0.0 0.0 0.00 0.05 0.00 32 1015.9
20260903171410 26 225 0.0 1.6 0.00 0.05 0.00 37 1015.9
20260903170903 26 225 0.0 0.0 0.00 0.05 0.00 38 1015.9
20260903170357 26 242 0.0 0.0 0.00 0.05 0.00 38 1015.9
20260903165345 25 242 0.0 1.6 0.00 0.05 0.00 36 1016.0
20260903164838 25 242 0.0 1.6 0.00 0.05 0.00 39 1016.0
20260903164332 25 242 0.0 0.0 0.00 0.05 0.00 40 1016.0
20260903163826 25 242 0.0 0.0 0.00 0.05 0.00 39 1016.0
20260903163322 25 242 0.0 0.0 0.00 0.05 0.00 42 1016.0
20260903162814 24 242 0.0 0.0 0.00 0.05 0.00 41 1016.1
20260903162307 24 241 0.0 1.6 0.00 0.05 0.00 44 1016.0
20260903161800 24 242 0.0 1.6 0.00 0.05 0.00 43 1016.0
20260903161255 23 242 0.0 0.0 0.00 0.05 0.00 46 1016.0
20260903160749 23 242 0.0 0.0 0.00 0.05 0.00 46 1016.0
20260903160242 23 242 0.0 0.0 0.00 0.05 0.00 48 1016.0
20260903155737 22 242 0.0 1.6 0.00 0.05 0.00 49 1016.0
20260903155230 22 242 0.0 1.6 0.00 0.05 0.00 50 1016.0
20260903154726 22 242 0.0 0.0 0.00 0.05 0.00 50 1015.9
20260903154219 22 242 0.0 1.6 0.00 0.05 0.00 51 1016.0
20260903153712 21 242 0.0 1.6 0.00 0.05 0.00 52 1016.0
20260903153206 21 242 0.0 0.0 0.00 0.05 0.00 52 1016.0
20260903152701 21 242 0.0 0.0 0.00 0.05 0.00 52 1016.1
20260903152154 21 242 0.0 0.0 0.00 0.05 0.00 55 1016.0
20260903151144 20 239 0.0 0.0 0.00 0.05 0.00 58 1016.1
20260903150638 20 230 0.0 0.0 0.00 0.05 0.00 60 1016.1
20260903150130 20 229 0.0 6.4 0.00 0.05 0.00 62 1016.2
20260903145625 19 226 0.0 6.4 0.00 0.05 0.00 63 1016.2
20260903145118 19 248 0.0 0.0 0.00 0.05 0.00 65 1016.2
20260903144612 18 248 0.0 0.0 0.00 0.05 0.00 65 1016.4
20260903144107 18 248 0.0 0.0 0.00 0.05 0.00 67 1016.4
20260903143602 18 248 0.0 0.0 0.00 0.05 0.00 68 1016.5
20260903143054 17 248 0.0 0.0 0.00 0.05 0.00 68 1016.4
20260903142548 17 252 0.0 0.0 0.00 0.05 0.00 70 1016.5
20260903142042 17 250 0.0 0.0 0.00 0.05 0.00 72 1016.5
20260903141537 16 251 0.0 0.0 0.00 0.05 0.00 73 1016.5
20260903141031 16 248 0.0 3.2 0.00 0.05 0.00 74 1016.4
20260903140018 15 261 0.0 3.2 0.00 0.05 0.00 76 1016.2
20260903135513 15 262 0.0 1.6 0.00 0.05 0.00 77 1016.2
20260903135007 15 261 0.0 0.0 0.00 0.05 0.00 78 1016.2
20260903134502 15 263 0.0 0.0 0.00 0.05 0.00 78 1016.2
20260903133954 15 263 0.0 0.0 0.00 0.05 0.00 78 1016.2
20260903133449 14 263 0.0 0.0 0.00 0.05 0.00 78 1016.1
20260903132942 14 263 0.0 0.0 0.00 0.05 0.00 78 1016.0
20260903132437 14 263 0.0 0.0 0.00 0.05 0.00 78 1015.9
20260903131931 14 263 0.0 0.0 0.00 0.05 0.00 78 1015.9
20260903131424 14 263 0.0 0.0 0.00 0.05 0.00 78 1015.9
20260903130918 14 263 0.0 0.0 0.00 0.05 0.00 78 1015.9
20260903125906 14 263 0.0 0.0 0.00 0.05 0.00 78 1015.7
20260903125400 14 263 0.0 0.0 0.00 0.05 0.00 78 1015.8
20260903124348 14 263 0.0 0.0 0.00 0.05 0.00 78 1015.5
20260903123843 14 263 0.0 0.0 0.00 0.05 0.00 78 1015.4
20260903123336 14 263 0.0 0.0 0.00 0.05 0.00 78 1015.5
20260903122831 14 263 0.0 1.6 0.00 0.05 0.00 79 1015.2
20260903122326 14 263 0.0 1.6 0.00 0.05 0.00 79 1015.2
20260903121313 14 263 0.0 0.0 0.00 0.05 0.00 79 1015.2
20260903120806 14 263 0.0 0.0 0.00 0.05 0.00 79 1015.2
20260903120301 14 263 0.0 0.0 0.00 0.05 0.00 79 1015.1
20260903115755 14 263 0.0 0.0 0.00 0.05 0.00 79 1015.2
20260903115248 14 263 0.0 0.0 0.00 0.05 0.00 79 1015.2
20260903114742 14 263 0.0 0.0 0.00 0.05 0.00 79 1015.1
20260903114236 14 263 0.0 0.0 0.00 0.05 0.00 79 1015.1
20260903113224 14 263 0.0 1.6 0.00 0.05 0.00 79 1015.1
20260903112723 15 263 0.0 1.6 0.00 0.05 0.00 79 1015.1
20260903112219 15 263 0.0 0.0 0.00 0.05 0.00 79 1015.1
20260903111721 15 263 0.0 0.0 0.00 0.05 0.00 79 1015.0
20260903110713 15 263 0.0 0.0 0.00 0.05 0.00 78 1015.0
20260903105710 15 263 0.0 0.0 0.00 0.05 0.00 78 1014.8
20260903105207 15 263 0.0 0.0 0.00 0.05 0.00 78 1014.7
20260903104208 15 263 0.0 0.0 0.00 0.05 0.00 78 1014.7
20260903103208 15 263 0.0 0.0 0.00 0.05 0.00 78 1014.8
20260903102709 15 263 0.0 0.0 0.00 0.05 0.00 78 1014.8
20260903102207 15 263 0.0 0.0 0.00 0.05 0.00 78 1014.8
20260903101709 15 263 0.0 0.0 0.00 0.05 0.00 78 1015.0
20260903101208 15 263 0.0 0.0 0.00 0.05 0.00 77 1015.1
20260903100707 15 263 0.0 0.0 0.00 0.05 0.00 77 1015.1
20260903100208 15 263 0.0 0.0 0.00 0.05 0.00 77 1015.1
20260903095207 16 263 0.0 0.0 0.00 0.05 0.00 77 1015.1
20260903094208 16 263 0.0 0.0 0.00 0.05 0.00 77 1015.1
20260903093208 16 263 0.0 1.6 0.00 0.05 0.00 77 1015.1
20260903092707 16 263 0.0 1.6 0.00 0.05 0.00 77 1015.0
20260903092208 16 263 0.0 1.6 0.00 0.05 0.00 77 1015.1
20260903091707 16 263 0.0 1.6 0.00 0.05 0.00 76 1015.2
20260903091207 16 263 0.0 1.6 0.00 0.05 0.00 77 1015.1
20260903090708 16 263 0.0 1.6 0.00 0.05 0.00 77 1015.0
20260903090207 16 263 0.0 1.6 0.00 0.05 0.00 77 1015.1
20260903085710 16 264 0.0 0.0 0.00 0.05 0.00 77 1015.0
20260903084658 16 264 0.0 0.0 0.00 0.05 0.00 77 1015.0
20260903084152 16 264 0.0 0.0 0.00 0.05 0.00 77 1015.0
20260903083646 16 264 0.0 0.0 0.00 0.05 0.00 76 1015.0
20260903083139 16 264 0.0 0.0 0.00 0.05 0.00 76 1015.0
20260903082634 16 264 0.0 0.0 0.00 0.05 0.00 76 1015.0
20260903082128 16 264 0.0 0.0 0.00 0.05 0.00 76 1014.8
20260903081116 16 264 0.0 0.0 0.00 0.05 0.00 75 1015.0
20260903080609 17 264 0.0 0.0 0.00 0.05 0.00 75 1015.1
20260903075558 17 264 0.0 0.0 0.00 0.05 0.00 75 1015.2
20260903075052 17 264 0.0 0.0 0.00 0.05 0.00 75 1015.3
20260903074546 17 264 0.0 0.0 0.00 0.05 0.00 75 1015.3
20260903074040 17 264 0.0 0.0 0.00 0.05 0.00 75 1015.3
20260903072522 17 264 0.0 0.0 0.00 0.05 0.00 75 1015.3
20260903072015 17 264 0.0 0.0 0.00 0.05 0.00 75 1015.4
20260903071509 17 264 0.0 0.0 0.00 0.05 0.00 75 1015.3
20260903071004 17 264 0.0 0.0 0.00 0.05 0.00 75 1015.4
20260903070457 17 265 0.0 0.0 0.00 0.05 0.00 75 1015.3
20260903065953 17 265 0.0 0.0 0.00 0.05 0.00 75 1015.3
20260903064941 17 265 0.0 0.0 0.00 0.05 0.00 75 1015.2
20260903064433 17 265 0.0 0.0 0.00 0.05 0.00 75 1015.3
20260903063927 17 265 0.0 0.0 0.00 0.05 0.00 75 1015.4
20260903062923 17 265 0.0 0.0 0.00 0.05 0.00 75 1015.3
20260903062423 17 265 0.0 0.0 0.00 0.05 0.00 75 1015.4
20260903061926 17 265 0.0 0.0 0.00 0.05 0.00 75 1015.4
20260903061421 17 265 0.0 0.0 0.00 0.05 0.00 75 1015.4
20260903060419 17 265 0.0 0.0 0.00 0.05 0.00 75 1015.7
20260903055918 17 265 0.0 0.0 0.00 0.05 0.05 75 1015.7
20260903055417 17 265 0.0 0.0 0.00 0.05 0.05 74 1015.5
20260903054918 17 265 0.0 0.0 0.00 0.05 0.05 74 1015.4
20260903054418 17 265 0.0 0.0 0.00 0.05 0.05 74 1015.3
20260903053918 17 265 0.0 0.0 0.00 0.05 0.05 74 1015.5
20260903053418 18 265 0.0 0.0 0.00 0.05 0.05 74 1015.5
20260903052915 18 265 0.0 0.0 0.00 0.05 0.05 74 1015.3
20260903052413 18 265 0.0 0.0 0.00 0.05 0.05 74 1015.1
20260903051914 18 265 0.0 0.0 0.00 0.05 0.05 74 1015.3
20260903051413 18 265 0.0 0.0 0.00 0.05 0.05 74 1015.2
20260903050915 18 330 0.0 0.0 0.00 0.05 0.05 73 1015.3
20260903050414 18 330 0.0 0.0 0.00 0.05 0.05 72 1015.4
20260903045914 18 330 0.0 0.0 0.00 0.05 0.05 72 1015.4
20260903045413 18 330 0.0 0.0 0.00 0.05 0.05 72 1015.4
20260903044915 18 330 0.0 0.0 0.00 0.05 0.05 72 1015.5
20260903043414 19 330 0.0 0.0 0.00 0.05 0.05 70 1015.5
20260903042414 19 330 0.0 0.0 0.00 0.05 0.05 69 1015.5
20260903041913 19 330 0.0 0.0 0.00 0.05 0.05 68 1015.5
20260903041413 20 330 0.0 0.0 0.03 0.05 0.05 67 1015.5
20260903040914 20 330 0.0 0.0 0.05 0.05 0.05 67 1015.5
20260903035909 20 330 0.0 0.0 0.05 0.05 0.05 65 1015.5
20260903035403 20 330 0.0 0.0 0.05 0.05 0.05 64 1015.7
20260903034856 20 330 0.0 0.0 0.05 0.05 0.05 63 1015.5
20260903034353 20 283 0.0 0.0 0.05 0.05 0.05 63 1015.7
20260903033849 21 333 0.0 0.0 0.05 0.05 0.05 62 1015.7
20260903033348 21 330 0.0 0.0 0.05 0.05 0.05 62 1015.7
20260903032845 21 351 0.0 0.0 0.05 0.05 0.05 61 1015.5
20260903031843 22 279 0.0 0.0 0.05 0.05 0.05 59 1015.9
20260903030343 22 252 0.0 0.0 0.00 0.00 0.00 52 1016.6
20260903025841 22 63 0.0 0.0 0.00 0.00 0.00 51 1016.1
20260903024842 22 63 0.0 0.0 0.00 0.00 0.00 50 1015.2
20260903024340 22 111 0.0 0.0 0.00 0.00 0.00 50 1014.7
20260903023838 23 209 0.0 0.0 0.00 0.00 0.00 49 1014.5
20260903023338 23 247 0.0 0.0 0.00 0.00 0.00 48 1014.4
20260903022837 23 346 0.0 0.0 0.00 0.00 0.00 48 1014.4
20260903022337 23 323 0.0 0.0 0.00 0.00 0.00 48 1014.3
20260903021836 23 323 0.0 0.0 0.00 0.00 0.00 47 1014.4
20260903020829 23 332 0.0 0.0 0.00 0.00 0.00 46 1014.5
20260903020323 23 329 0.0 0.0 0.00 0.00 0.00 45 1014.4
20260903015817 24 342 0.0 0.0 0.00 0.00 0.00 44 1014.4
20260903015310 24 321 0.0 0.0 0.00 0.00 0.00 43 1014.4
20260903014805 24 337 0.0 0.0 0.00 0.00 0.00 42 1014.1
20260903014258 25 294 0.0 0.0 0.00 0.00 0.00 41 1014.1
20260903013756 25 284 0.0 0.0 0.00 0.00 0.00 40 1014.1
20260903012741 25 71 0.0 0.0 0.00 0.00 0.00 38 1014.1
20260903012234 26 340 0.0 0.0 0.00 0.00 0.00 38 1014.1
20260903011223 26 347 0.0 6.4 0.00 0.00 0.00 37 1014.0
20260903010717 27 338 0.0 6.4 0.00 0.00 0.00 36 1013.9
20260903005704 27 0 1.6 12.9 0.00 0.00 0.00 35 1013.9
20260903005158 28 9 0.0 0.0 0.00 0.00 0.00 33 1013.9
20260903004655 28 17 0.0 0.0 0.00 0.00 0.00 31 1013.7
20260903004148 28 297 0.0 1.6 0.00 0.00 0.00 30 1013.6
20260903003640 28 315 0.0 1.6 0.00 0.00 0.00 30 1013.6
20260903003135 28 342 0.0 3.2 0.00 0.00 0.00 31 1013.6
20260903002628 28 309 1.6 9.7 0.00 0.00 0.00 30 1013.4
20260903002122 29 339 1.6 9.7 0.00 0.00 0.00 31 1013.4
20260903001617 29 329 0.0 0.0 0.00 0.00 0.00 31 1013.4
20260903001110 29 0 0.0 0.0 0.00 0.00 0.00 32 1013.3
20260903000605 29 5 0.0 0.0 0.00 0.00 0.00 32 1013.3
20260902235552 29 67 0.0 0.0 0.00 0.00 0.00 33 1013.3
20260902235053 29 67 0.0 0.0 0.00 0.00 0.00 33 1013.3
20260902234553 29 67 0.0 0.0 0.00 0.00 0.00 32 1013.3
20260902234053 29 67 0.0 0.0 0.00 0.00 0.00 32 1013.3
20260902233550 29 67 0.0 0.0 0.00 0.00 0.00 31 1013.3
20260902233051 29 67 0.0 0.0 0.00 0.00 0.00 31 1013.2
20260902232549 30 131 0.0 0.0 0.00 0.00 0.00 30 1013.2
20260902232051 30 178 0.0 0.0 0.00 0.00 0.00 31 1013.3
20260902231548 30 178 0.0 0.0 0.00 0.00 0.00 30 1013.3
20260902231049 30 179 0.0 0.0 0.00 0.00 0.00 30 1013.2
20260902230548 30 179 0.0 0.0 0.00 0.00 0.00 30 1013.1
20260902225546 31 213 0.0 0.0 0.00 0.00 0.00 28 1013.1
20260902225042 31 142 0.0 0.0 0.00 0.00 0.00 28 1013.2
20260902224044 31 125 0.0 0.0 0.00 0.00 0.00 29 1013.2
20260902223541 31 202 0.0 0.0 0.00 0.00 0.00 29 1013.3
20260902223039 31 350 0.0 0.0 0.00 0.00 0.00 27 1013.1
20260902222038 31 136 0.0 0.0 0.00 0.00 0.00 29 1013.1
20260902221532 31 123 0.0 0.0 0.00 0.00 0.00 32 1013.2
20260902220519 31 125 0.0 0.0 0.00 0.00 0.00 29 1013.4
20260902215507 31 118 0.0 0.0 0.00 0.00 0.00 28 1013.6
20260902215002 31 118 0.0 0.0 0.00 0.00 0.00 28 1013.7
20260902214456 31 101 0.0 0.0 0.00 0.00 0.00 28 1013.6
20260902213453 31 90 0.0 4.8 0.00 0.00 0.00 28 1013.8
20260902212952 31 88 0.0 4.8 0.00 0.00 0.00 28 1013.9
20260902212456 31 244 0.0 0.0 0.00 0.00 0.00 31 1013.9
20260902211951 31 333 0.0 0.0 0.00 0.00 0.00 29 1013.9
20260902211450 31 49 0.0 0.0 0.00 0.00 0.00 30 1014.0
20260902210952 31 177 0.0 0.0 0.00 0.00 0.00 32 1014.0
20260902210449 31 105 0.0 11.3 0.00 0.00 0.00 28 1014.3
20260902205947 31 146 0.0 11.3 0.00 0.00 0.00 31 1014.3
20260902204444 31 41 0.0 3.2 0.00 0.00 0.00 27 1014.6
20260902203944 31 171 0.0 4.8 0.00 0.00 0.00 28 1014.7
20260902203443 31 138 0.0 4.8 0.00 0.00 0.00 29 1014.8
20260902202939 31 76 0.0 4.8 0.00 0.00 0.00 30 1014.8
20260902202438 31 160 0.0 0.0 0.00 0.00 0.00 29 1015.1
20260902200939 30 127 0.0 0.0 0.00 0.00 0.00 28 1015.3
20260902200439 31 131 0.0 0.0 0.00 0.00 0.00 30 1015.3
20260902195939 31 115 0.0 0.0 0.00 0.00 0.00 29 1015.3
20260902195439 30 157 0.0 0.0 0.00 0.00 0.00 33 1015.4
20260902194938 30 225 0.0 0.0 0.00 0.00 0.00 28 1015.4
20260902194439 30 263 0.0 0.0 0.00 0.00 0.00 28 1015.5
20260902193938 30 319 0.0 0.0 0.00 0.00 0.00 29 1015.5
20260902193439 30 321 0.0 0.0 0.00 0.00 0.00 30 1015.7
20260902192938 30 66 0.0 1.6 0.00 0.00 0.00 28 1015.8